Location: Newton_East
(35.6670°N, 81.2000°W)
Time: 15:21:11
(UTC-04:00)

ISS - Visible Passes

Search period start: 21 September 2017 00:00
Search period end: 01 October 2017 00:00
Orbit: 401 x 407 km, 51.6° (Epoch: 22 September)

Date Brightness Start Highest point End Pass type
(mag) Time Alt. Az. Time Alt. Az. Time Alt. Az.
21 Sep -2.0 05:10:34 31° E 05:10:34 31° E 05:12:43 10° ESE visible
21 Sep -2.0 06:43:45 10° W 06:45:48 16° SW 06:47:50 10° SSW visible
22 Sep -2.7 05:54:23 28° SSW 05:54:23 28° SSW 05:56:38 10° SSE visible
22 Sep -1.3 20:52:07 10° SSW 20:52:33 13° S 20:52:33 13° S visible
23 Sep -1.9 20:01:02 10° SSE 20:02:51 14° SE 20:03:34 13° ESE visible
23 Sep -0.7 21:35:53 10° WSW 21:36:17 13° WSW 21:36:17 13° WSW visible
24 Sep -4.0 20:43:25 10° SW 20:46:40 86° SE 20:47:03 67° ENE visible
25 Sep -3.2 19:51:22 10° SSW 19:54:25 37° SE 19:57:28 10° ENE visible
25 Sep -1.1 21:28:26 10° W 21:30:17 19° NW 21:30:17 19° NW visible
26 Sep -2.3 20:35:27 10° WSW 20:38:28 35° NW 20:40:34 17° NNE visible
27 Sep -3.6 19:42:49 10° SW 19:46:03 73° NW 19:49:20 10° NE visible
27 Sep -0.7 21:21:49 10° NW 21:23:02 12° NNW 21:23:21 11° NNW visible
28 Sep -1.2 20:28:06 10° WNW 20:30:23 17° NNW 20:32:41 10° NNE visible
29 Sep -2.0 19:34:56 10° W 19:37:49 29° NW 19:40:44 10° NNE visible
30 Sep -0.7 20:22:02 10° NNW 20:22:24 10° NNW 20:22:47 10° NNW visible
